Location: Poughquag
(41.6090°N, 73.6820°W)
Time: 15:27:43
(UTC-05:00)

S-56A Canister/Altair - Pass Details

Date: 08 December 2023
Orbit: 640 x 2488 km, 38.9° (Epoch: 26 February)

Event Time Altitude Azimuth Distance (km) Brightness Sun altitude
Rises 16:55:09 0° 264° (W) 3,108 12.3 -5.9°
Reaches altitude 10° 16:59:02 10° 232° (SW) 2,407 11.7 -6.6°
Maximum altitude 17:01:01 12° 211° (SSW) 2,411 11.0 -6.9°
Drops below altitude 10° 17:03:13 10° 190° (S) 2,711 10.8 -7.3°
Sets 17:08:25 0° 162° (SSE) 4,104 11.3 -8.2°
